TimeCST,TemperatureF,Dew PointF,Humidity,Sea Level PressureIn,VisibilityMPH,Wind Direction,Wind SpeedMPH,Gust SpeedMPH,PrecipitationIn,Events,Conditions,WindDirDegrees,DateUTC
12:52 AM,42.1,28.0,58,30.00,10.0,SSE,5.8,-,N/A,,Clear,150,2014-02-09 06:52:00
1:52 AM,37.9,28.0,68,30.00,10.0,South,5.8,-,N/A,,Clear,180,2014-02-09 07:52:00
2:52 AM,43.0,27.0,53,29.97,10.0,SSW,9.2,-,N/A,,Clear,200,2014-02-09 08:52:00
3:52 AM,45.0,27.0,49,29.96,10.0,SSW,6.9,-,N/A,,Clear,200,2014-02-09 09:52:00
4:52 AM,44.1,27.0,51,29.96,10.0,WNW,4.6,-,N/A,,Clear,290,2014-02-09 10:52:00
5:52 AM,45.0,26.1,48,29.97,10.0,Calm,Calm,-,N/A,,Clear,0,2014-02-09 11:52:00
6:52 AM,37.0,27.0,67,29.98,10.0,South,5.8,-,N/A,,Clear,190,2014-02-09 12:52:00
7:52 AM,39.0,27.0,62,30.00,10.0,South,6.9,-,N/A,,Clear,170,2014-02-09 13:52:00
8:52 AM,46.9,28.9,50,29.99,10.0,South,3.5,-,N/A,,Clear,190,2014-02-09 14:52:00
9:52 AM,55.0,28.9,37,30.02,10.0,West,8.1,-,N/A,,Clear,280,2014-02-09 15:52:00
10:19 AM,46.9,34.0,61,30.06,10.0,North,11.5,-,N/A,,Clear,360,2014-02-09 16:19:00
10:52 AM,46.9,33.1,59,30.05,10.0,North,13.8,-,N/A,,Clear,360,2014-02-09 16:52:00
11:52 AM,45.0,33.1,63,30.04,9.0,North,11.5,-,N/A,,Clear,350,2014-02-09 17:52:00
12:52 PM,45.0,33.1,63,30.03,10.0,North,12.7,-,N/A,,Clear,350,2014-02-09 18:52:00
1:52 PM,45.0,33.1,63,30.00,10.0,North,12.7,-,N/A,,Clear,360,2014-02-09 19:52:00
2:52 PM,43.0,33.1,68,30.01,10.0,NNW,19.6,-,N/A,,Clear,340,2014-02-09 20:52:00
3:52 PM,41.0,33.1,73,30.02,9.0,North,16.1,-,N/A,,Clear,350,2014-02-09 21:52:00
4:52 PM,42.1,34.0,73,30.01,6.0,North,15.0,-,N/A,,Haze,10,2014-02-09 22:52:00
5:25 PM,39.9,33.1,77,30.03,9.0,NNE,11.5,-,N/A,,Mostly Cloudy,20,2014-02-09 23:25:00
5:52 PM,37.9,33.1,83,30.05,8.0,NNE,11.5,-,N/A,,Overcast,30,2014-02-09 23:52:00
6:47 PM,37.4,33.8,87,30.05,9.0,NNE,11.5,-,N/A,,Overcast,30,2014-02-10 00:47:00
6:52 PM,37.0,34.0,89,30.07,8.0,NNE,10.4,-,N/A,,Overcast,30,2014-02-10 00:52:00
7:52 PM,36.0,33.1,89,30.08,7.0,NE,6.9,-,N/A,,Overcast,40,2014-02-10 01:52:00
8:30 PM,35.1,33.1,92,30.08,1.0,NNE,12.7,20.7,N/A,,Overcast,20,2014-02-10 02:30:00
8:52 PM,35.1,33.1,92,30.09,1.0,NNE,11.5,19.6,N/A,,Overcast,30,2014-02-10 02:52:00
8:59 PM,35.1,33.1,92,30.10,2.0,NE,11.5,-,N/A,,Overcast,40,2014-02-10 02:59:00
9:10 PM,35.1,33.1,92,30.10,4.0,NE,10.4,-,N/A,,Overcast,40,2014-02-10 03:10:00
9:22 PM,34.0,33.1,96,30.10,1.8,NNE,9.2,-,N/A,,Overcast,30,2014-02-10 03:22:00
9:52 PM,34.0,32.0,92,30.10,3.0,NNE,11.5,-,N/A,,Overcast,30,2014-02-10 03:52:00
10:10 PM,34.0,32.0,92,30.12,1.8,North,11.5,-,N/A,,Overcast,10,2014-02-10 04:10:00
10:22 PM,34.0,32.0,92,30.11,2.0,NNE,11.5,-,N/A,,Overcast,20,2014-02-10 04:22:00
10:35 PM,33.1,32.0,96,30.12,6.0,NNE,10.4,-,N/A,,Overcast,30,2014-02-10 04:35:00
10:52 PM,34.0,32.0,92,30.12,5.0,NE,6.9,-,N/A,,Overcast,40,2014-02-10 04:52:00
11:11 PM,33.1,32.0,96,30.13,2.5,NNE,8.1,-,N/A,,Overcast,20,2014-02-10 05:11:00
11:18 PM,33.1,32.0,96,30.14,4.0,NNE,10.4,-,N/A,,Overcast,30,2014-02-10 05:18:00
11:52 PM,33.1,32.0,96,30.14,1.5,North,9.2,-,N/A,,Overcast,10,2014-02-10 05:52:00